COSMOS 2414

Satellite information

Favourite Embed

Satellite Type and Status

PAYLOADIN ORBIT

Key statistics

Satellite COSMOS 2414 at a glance.

Uptime

7586

Days in orbit

Revolutions

≈ 13.9

Per day

Orbit

LEO

Low Earth Orbit

Inclination

83.0

Latest

Satellite identification and parameters

Extended collection of information and parameters for COSMOS 2414.

Object identification

Identified? True

Debris? False

Object name: COSMOS 2414

International designator: 2005-002A

Object number (NORAD): 28521

Object ID (CCSDS): 28521

Country: COMMONWEALTH OF INDEPENDENT STATES (CIS)

Current information (Y/N): Y

RCS size: LARGE

Orbital parameters

Period: 103.754 minutes

Inclination: 82.952 deg

SMA: 7314.156 km

Apoapsis: 964.305 km

Periapsis: 907.737 km

RAAN: 219.3176 deg

Eccentricy: 0.003867

Argument of periapsis: 272.1982 deg

Mean anomaly: 87.4753 deg

Mean motion: 13.87894378 rev/day

Mean motion (dot): 0.00000106 rev/day2

B* drag term: 0.00007621601 1/REarth

Two-line elements (TLE)

Creation date: Oct. 28, 2025, 2:18 a.m.

Reference frame: TEME

Reference center: EARTH

Epoch: Oct. 27, 2025, 9:30 p.m. UTC

TLE line 0: 0 COSMOS 2414

TLE line 1: 1 28521U 05002A 25300.89643764 .00000106 00000-0 76216-4 0 9995

TLE line 2: 2 28521 82.9520 219.3176 0038670 272.1982 87.4753 13.87894378 51592

Live tracking on map

Real-time ground track for satellite COSMOS 2414.

In-orbit conjunctions

There are no conjunctions computed for COSMOS 2414, at the moment. Check back to stay up to date, as we update our databases every day.

Go to all conjunctions

Associated space launch

Navigation satellite providing location information for the Tsiklon-B navigation system

COSMOS 2414 was lifted into orbit during the mission ‘Kosmos-3M | Parus 96’, on board a Kosmos-3M space rocket.

The launch took place on Jan. 20, 2005, 3 a.m. from 132/1 (132L).

For more information about the launch, click the button.

Launch to space Kosmos-3M | Parus 96
Kosmos-3M | Parus 96

Agency: N/A

Status: Launch Successful

Launch date: Jan. 20, 2005, 3 a.m. UTC

Rocket: Kosmos-3M

Launch pad: 132/1 (132L)

Location: Plesetsk Cosmodrome, Russian Federation

...

Latest news about this satellite

There are no fresh news available about this satellite. Check back as we update our databases every day.


Newsletter sign-up

Weekly statistics, charts and insights to help you stay on top of the space industry.